This is the latest recevied weather packets stored in our database for station/object KO4T-4. If no packets are shown the sender has not sent any weather packets the latest 10 day(s).
| Time | Temp. | Humidity | Pressure | Rain* | Wind** | Luminosity | Snow |
|---|---|---|---|---|---|---|---|
| 1777968602 | 13.89° C | 65% | 1014.4 hPa | 0 mm | - | - | - |
| 1777968303 | 13.89° C | 65% | 1014.4 hPa | 0 mm | - | - | - |
| 1777968002 | 13.89° C | 64% | 1014.3 hPa | 0 mm | - | - | - |
| 1777967702 | 14.44° C | 64% | 1014.3 hPa | 0 mm | - | - | - |
| 1777967403 | 13.89° C | 64% | 1014.3 hPa | 0 mm | - | - | - |
| 1777967102 | 14.44° C | 63% | 1014.3 hPa | 0 mm | - | - | - |
| 1777966803 | 14.44° C | 62% | 1014.3 hPa | 0 mm | - | - | - |
| 1777966502 | 14.44° C | 62% | 1014.2 hPa | 0 mm | - | - | - |
| 1777966202 | 15° C | 61% | 1014 hPa | 0 mm | - | - | - |
| 1777965903 | 15.56° C | 59% | 1013.9 hPa | 0 mm | - | - | - |
| 1777965602 | 15.56° C | 59% | 1014 hPa | 0 mm | - | - | - |
| 1777965303 | 15.56° C | 58% | 1014.1 hPa | 0 mm | - | - | - |
| 1777965003 | 15.56° C | 58% | 1014.1 hPa | 0 mm | - | - | - |
| 1777964702 | 16.11° C | 57% | 1014.1 hPa | 0 mm | - | - | - |
| 1777964403 | 16.11° C | 56% | 1014 hPa | 0 mm | - | - | - |
| 1777964102 | 16.67° C | 55% | 1014.1 hPa | 0 mm | - | - | - |
| 1777963802 | 16.67° C | 54% | 1014.1 hPa | 0 mm | - | - | - |
| 1777963503 | 16.67° C | 53% | 1014 hPa | 0 mm | - | - | - |
| 1777963202 | 17.22° C | 53% | 1014.1 hPa | 0 mm | - | - | - |
| 1777962902 | 17.22° C | 52% | 1014.2 hPa | 0 mm | - | - | - |
| 1777962603 | 17.78° C | 51% | 1014.2 hPa | 0 mm | - | - | - |
| 1777962302 | 18.33° C | 50% | 1014.2 hPa | 0 mm | - | - | - |
| 1777962002 | 18.33° C | 49% | 1014.3 hPa | 0 mm | - | - | - |
| 1777961702 | 18.33° C | 49% | 1014.3 hPa | 0 mm | - | - | - |
| 1777961402 | 18.33° C | 49% | 1014.3 hPa | 0 mm | - | - | - |
* Rain latest hour (hover to see other rain measurements)
** Current wind speed in m/s (hover to see current wind gust speed)